Flag for Romania Weather past 2 weeks in Bucharest, Romania

Now
91 °F

Sunny.


Feels Like: 90 °F
Forecast: 67 / 94 °F
Wind: 1 mph from North

Location: Bucharest / Imh

Current Time: Jul 6, 2015 at 6:41:00 PM

Latest Report: Jul 6, 2015 at 6:00 PM


Visibility: 10 mi

Pressure: 30.01 "Hg

Humidity: 32%

Dew point: 57 °F

Location of BucharestLocation

Historic Weather in Bucharest — Graph

°F

Bucharest temperature yesterday

Maximum temperature yesterday: 84 °F (at 5:30 PM)
Minimum temperature yesterday: 63 °F (at 2:30 AM)
Average temperature yesterday: 74 °F

Past Weeks' High & Low Weather Summary

 TemperatureHumidityPressure
High90 °F (Jul 6, 2:30 PM)100% (Jun 21, 11:00 PM)30.27 "Hg (Jun 21, 11:00 PM)
Low55 °F (Jun 21, 11:00 PM)27% (Jun 24, 6:30 PM)29.86 "Hg (Jun 26, 7:00 PM)
Average70 °F68%30.03 "Hg
* Reported Jun 21 5:00 PM — Jul 6 5:30 PM, Bucharest, Weather by CustomWeather, © 2015

Note: Actual official high and low records may vary slightly from our data, if they occured in-between our weather recording intervals... More about our weather records

Advertising

Bucharest weather history for previous 24 hours

 ConditionsComfort  
Time TempWeatherWind HumidityBarometerVisibility
5:30 PM
Mon, Jul 6
90 °FSunny.2 mph31%30.01 "Hg10 mi
5:00 PM90 °FSunny.3 mph31%30.04 "Hg10 mi
4:30 PM90 °FPassing clouds.5 mph33%30.04 "HgN/A
4:00 PM90 °FSunny.3 mph33%30.04 "Hg10 mi
3:30 PM90 °FSunny.2 mph31%30.04 "Hg10 mi
3:00 PM88 °FSunny.2 mph33%30.04 "Hg10 mi
2:30 PM90 °FPassing clouds.6 mph36%30.04 "HgN/A
2:00 PM88 °FPassing clouds.6 mph38%30.04 "HgN/A
1:30 PM88 °FPassing clouds.5 mph35%30.04 "HgN/A
1:00 PM88 °FPassing clouds.5 mph35%30.04 "HgN/A
12:30 PM86 °FPassing clouds.5 mph40%30.04 "HgN/A
12:00 PM86 °FSunny.3 mph40%30.04 "Hg10 mi
11:30 AM84 °FPassing clouds.5 mph40%30.04 "HgN/A
11:00 AM84 °FPassing clouds.5 mph43%30.04 "HgN/A
10:30 AM82 °FPassing clouds.3 mph51%30.04 "HgN/A
10:00 AM81 °FPassing clouds.3 mph54%30.04 "HgN/A
9:30 AM77 °FPassing clouds.6 mph65%30.04 "HgN/A
9:00 AM75 °FPassing clouds.5 mph69%30.04 "HgN/A
8:30 AM73 °FPassing clouds.3 mph74%30.04 "HgN/A
8:00 AM72 °FPassing clouds.3 mph78%30.04 "HgN/A
7:30 AM70 °FSunny.No wind83%30.04 "Hg10 mi
7:00 AM68 °FSunny.No wind83%30.04 "Hg10 mi
6:30 AM64 °FClear.2 mph94%30.04 "Hg10 mi
6:00 AM64 °FClear.2 mph94%30.04 "Hg10 mi
5:30 AM64 °FClear.3 mph94%30.04 "Hg10 mi
5:00 AM66 °FClear.2 mph83%30.04 "Hg10 mi
4:30 AM68 °FClear.2 mph78%30.04 "Hg10 mi
4:00 AM68 °FClear.No wind78%30.04 "Hg10 mi
3:30 AM68 °FClear.1 mph78%30.04 "Hg10 mi
3:00 AM66 °FClear.No wind88%30.04 "Hg10 mi
2:30 AM66 °FClear.1 mph88%30.04 "Hg10 mi
2:00 AM68 °FClear.1 mph78%30.04 "Hg10 mi
1:30 AM68 °FClear.3 mph78%30.04 "Hg10 mi
1:00 AM72 °FClear.3 mph73%30.04 "Hg10 mi
12:30 AM72 °FClear.2 mph73%30.07 "Hg10 mi
12:00 AM70 °FClear.5 mph78%30.04 "Hg10 mi
11:30 PM
Sun, Jul 5
72 °FClear.3 mph73%30.04 "Hg10 mi
11:00 PM75 °FClear.1 mph61%30.04 "Hg10 mi
10:30 PM75 °FClear.2 mph65%30.04 "Hg10 mi
10:00 PM77 °FSunny.2 mph57%30.04 "Hg10 mi
9:30 PM77 °FSunny.3 mph61%30.04 "Hg10 mi
9:00 PM77 °FPassing clouds.2 mph61%30.04 "HgN/A
8:30 PM79 °FSunny.3 mph54%30.04 "Hg10 mi
8:00 PM79 °FSunny.3 mph58%30.04 "Hg10 mi
7:30 PM82 °FSunny.No wind42%30.04 "Hg10 mi
7:00 PM82 °FSunny.1 mph40%30.04 "Hg10 mi
6:30 PM84 °FPassing clouds.3 mph40%30.04 "HgN/A
6:00 PM84 °FSunny.2 mph43%30.04 "Hg10 mi
Weather by CustomWeather, © 2015

See weather overviewHow to use our weather pages